Погода в Тевризе

Погода в Тевризе : погода сейчас, прогноз погоды и архив. Всё, что Вы хотите узнать о погоде в Тевризе!

Хотите узнать прогноз погоды в Тевризе? Тогда Вам сюда: Погода в Тевризе

Поиск расширенной информации на нашем сайте:

Другие новости

Новости СМИ2

Главная страница сайта

Новости сайта

03.07.2017

Напоминаем, что на нашем специализированном сайте Метеоцентр.Азия вы можете получить высокодетализированные автоматические прогнозы погоды по пунктам России, СНГ и мира в авиационном формате (включающие направление и скорость ветра, видимость, явления погоды, количество и форму облачности, нижнюю и верхнюю границу облачности).

Рекомендуем: Супер прогрессивный стабилизатор переменного напряжения

Погода в Тевризе - сегодня

Время (UTC), дата Ветер
(°,м/с) 
Видим.   Явления Облачность Т
(°С)
Тd
(°С)
f(%) Тe
(°С)
Pmin
(гПа)
dP
(гПа)
Po
(мм)
O2
(г/м3)
Тmin Tmax R s Состояние
почвы
15 15.10.17 010 (С) 10 км    10/10 1500 м 
[Sc]
+3.7 +0.1 77 +5  1011.9  0.8  753  299    +6.8  0.3     
18 15.10.17 330 (СЗ) 10 км    10/10 1500 м 
[Sc]
+3 -0.2 79 +4  1012.8  0.9  754  300           
21 15.10.17 310 (СЗ) 10 км    4/0 средняя 
[Ac trans]
+1.7 -1.3 80 +2  1013.6  0.7  754  302           
00 16.10.17 340 (С) 10 км    ясно 
-2.6 -3.1 96 -4  1015.2  1.5  755  308           
03 16.10.17 350 (С) 20000 м    8/0 верхняя 
[Ci fib]
-0.9 -2.3 90 1017.4  2.2  757  306  -4.5         
06 16.10.17 080 (В) н/о    н/о 
+6.4 -3.1 51 +6  1018.7  1.5  758  299           
09 16.10.17 080 (В) 20000 м    10/0 верхняя 
[Cs]
+9.3 -4.3 38 +10  1019.6  759  296           
12 16.10.17 020 (С) н/о    н/о 
+5.8 -3.1 53 +7  1021.2  1.5  760  300           
15 16.10.17 тихо ()   10 км    ясно 
-1.2 -4 81 -1  1023  1.6  761  308    +9.3       
18 16.10.17 090 (В) 10 км    ясно 
-2.4 -3.5 92 -2  1024.2  1.1  762  310           
21 16.10.17 080 (В) 10 км    ясно 
-2.7 -3.8 92 -2  1024.5  0.3  762  311           
00 17.10.17 080 (В) 4000 м  дымка  ясно 
-4.3 -4.3 100 -6  1024.6  762  313           
03 17.10.17 100 (В) 8000 м  дымка  3/0 верхняя 
[Ci fib]
-2.4 -2.8 97 -3  1025.1  0.5  763  310  -5         
06 17.10.17 100 (В) н/о    н/о 
+4.9 -1.2 65 +4  1023.7  -1.2  762  302           
09 17.10.17 140 (ЮВ) 20000 м    8/0 верхняя 
[Ci fib]
+7.9 -2.5 48 +6  1021.7  -1.9  760  298           
12 17.10.17 100 (В) н/о    н/о 
+5.1 -2.6 57 +5  1020.5  -1.2  759  301           
15 17.10.17 100 (В) 10 км    ясно 
+0.8 -2.8 77 1019.2  -1.4  758  305    +8.2       
18 17.10.17 090 (В) 10 км    ясно 
-0.7 -2.2 90 -2  1017.5  -1.8  757  306           
21 17.10.17 140 (ЮВ) 10 км    10/10 300 м 
[Ns]
+2.1 +1.6 96 +1  1015.8  -1.6  756  302           
00 18.10.17 130 (ЮВ) 10 км    10/10 300 м 
[Ns]
+2.6 +2.1 96 +2  1013.9  -1.9  754  301           
03 18.10.17 110 (В) 8000 м  дымка  9/9 300 м 
[St]
+1.4 +1 97 -1  1012.3  -1.5  753  302  -0.9         
06 18.10.17 130 (ЮВ) н/о    н/о 
+5.9 +1.6 74 +4  1010.6  -1.5  752  296           
09 18.10.17 130 (ЮВ) 20000 м    3/0 верхняя 
[Ci fib]
+11.6 +2.4 53 +11  1008.2  -2.2  750  290           
12 18.10.17 130 (ЮВ) н/о    н/о 
+8.6 +2.5 65 +7  1007.5  -0.8  750  292           
15 18.10.17 130 (ЮВ) 5{10}  10 км    8/0 средняя 
[Ac lent]
+4.9 +2.1 82 +3  1007.4  -0.2  750  296    +11.8       
Время (UTC), дата Ветер
(°,м/с) 
Видим.   Явления Облачность Т
(°С)
Тd
(°С)
f(%) Тe
(°С)
Pmin
(гПа)
dP
(гПа)
Po
(мм)
O2
(г/м3)
Тmin Tmax R s Состояние
почвы

Для получения пояснительной информации подведите курсор к названию столбца.

ПОГОДА в Тевризе - архив

Всё, что Вы хотите узнать о погоде в Тевризе - удобно и подробно!

Выберите нужную дату (начиная с 1 января 2015* года) и нажмите кнопку "Найти".
Будут отображены архивные сводки погоды по пункту Тевриз, начиная с указанной даты.


Отображать данные в формате CSV (для использования в таблицах Excel)


Внимание! Наш архив погоды предназначен исключительно для личного некоммерческого использования в познавательных целях. Если Вам необходимы официальные справки о состоянии погоды (для производственных, юридических, коммерческих и т.п. целей), обращайтесь в органы Росгидромета.

*Примечание: данная дата относится к архиву по метеостанциям СССР (Россия, СНГ, Балтия).
Архив по метеостанциям Зарубежной Европы и Азии (кроме Китая) хранится 10 дней, по другим регионам земного шара (Китай, Африка, Америка, Австралия, Океания) - 1 день.

Тевриз - район местоположения метеостанции


Название, широта, долгота, высота метеостанции:
Тевриз 57.5°ш. 72.4°д. 67 м над ур. моря [Российская Федерация]

Дополнительная информация

В oтличие oт бoльшинства пoгoдных сайтoв мы публикуем пoдрoбную метеoинфoрмацию в детальнoм прoфессиoнальнoм фoрмате.

Характеристики температуры и влажнoсти вoздуха измеряются на высoте 2 м в тени вдали oт зданий и деревьев.
Скoрoсть ветра измеряется на высoте 10 м (на урoвне рoста челoвека скoрoсть ветра ниже в 1.5-2 раза). Если метеoстанция нахoдится в гoрoде или в лесу, тo скoрoсть ветра занижена на 2-4 м/с пo сравнению с oткрытым местoм. Скoрoсть ветра над акватoриями крупных рек и oзёр, а также на вершинах хoлмoв на 2-5 м/с выше, чем в oбычных услoвиях.
Атмoсфернoе давление в разных тoчках местнoсти мoжет значительнo oтличаться oт давления на метеoстанции, в зависимoсти oт услoвий рельефа (при пoдъёме на 10 м давление пoнижается примернo на 1 мм рт.ст.).